This demonstration page uses our WeatherBlox Daily Observations layout. Learn more.

Left ArrowRight Arrow

38.80484, -77.04692

Hourly Observations for September 24, 2022

Temp ( °F °C ) Dew Point ( °F °C ) Humidity (%) Winds ( mph kmh ) Pressure ( in mb ) Visibility ( mi km ) Precip ( " mm )
12:52 am 00:52 Partly Cloudy 56 13.3 42 5.6 60 60 NNW 7 11 30.13 1020 10 16 0.00 0.00
1:52 am 01:52 Partly Cloudy 55 12.8 42 5.6 62 62 N 8 13 30.14 1021 10 16 0.00 0.00
2:52 am 02:52 Partly Cloudy 55 12.8 44 6.7 66 66 NNW 7 11 30.13 1020 10 16 0.00 0.00
3:52 am 03:52 Partly Cloudy 56 13.3 42 5.6 60 60 NW 8 13 30.13 1020 10 16 0.00 0.00
4:52 am 04:52 Mostly Cloudy 56 13.3 40 4.4 55 55 NW 6 9 30.14 1021 10 16 0.00 0.00
5:52 am 05:52 Partly Cloudy 54 12.2 41 5 61 61 N 3 6 30.14 1021 10 16 0.00 0.00
6:52 am 06:52 Partly Cloudy 53 11.7 43 6.1 68 68 N 5 7 30.14 1021 10 16 0.00 0.00
7:52 am 07:52 Mostly Cloudy 56 13.3 43 6.1 62 62 N 5 7 30.14 1021 10 16 0.00 0.00
8:52 am 08:52 Mostly Cloudy 60 15.6 43 6.1 53 53 WSW 3 6 30.16 1021 10 16 0.00 0.00
9:52 am 09:52 Mostly Cloudy 63 17.2 41 5 44 44 W 6 9 30.16 1021 10 16 0.00 0.00
10:52 am 10:52 Mostly Cloudy 64 17.8 42 5.6 45 45 E 3 6 30.14 1021 10 16 0.00 0.00
11:52 am 11:52 Partly Cloudy 66 18.9 42 5.6 42 42 ENE 3 6 30.12 1020 10 16 0.00 0.00
12:52 pm 12:52 Mostly Cloudy 66 18.9 40 4.4 38 38 E 3 6 30.09 1019 10 16 0.00 0.00
1:52 pm 13:52 Mostly Cloudy 69 20.6 40 4.4 34 34 VRB 5 7 30.05 1018 10 16 0.00 0.00
2:52 pm 14:52 Mostly Cloudy 69 20.6 43 6.1 39 39 SSE 5 7 30.04 1017 10 16 0.00 0.00
3:52 pm 15:52 Mostly Cloudy 69 20.6 44 6.7 40 40 WSW 10 17 30.01 1016 10 16 0.00 0.00
4:52 pm 16:52 Mostly Cloudy 68 20 45 7.2 43 43 SSW 9 15 29.99 1016 10 16 0.00 0.00
5:52 pm 17:52 Mostly Cloudy 68 20 47 8.3 47 47 S 9 15 29.98 1015 10 16 0.00 0.00
6:52 pm 18:52 Partly Cloudy 66 18.9 47 8.3 50 50 SW 6 9 29.96 1015 10 16 0.00 0.00
7:52 pm 19:52 Mostly Clear 64 17.8 48 8.9 56 56 SSW 6 9 29.96 1015 10 16 0.00 0.00
8:52 pm 20:52 Mostly Clear 63 17.2 50 10 63 63 SSW 7 11 29.96 1015 10 16 0.00 0.00
9:52 pm 21:52 Mostly Clear 61 16.1 50 10 67 67 SSW 5 7 29.95 1014 10 16 0.00 0.00
10:52 pm 22:52 Mostly Clear 62 16.7 51 10.6 67 67 S 8 13 29.94 1014 10 16 0.00 0.00
11:52 pm 23:52 Partly Cloudy 61 16.1 51 10.6 70 70 SW 3 6 29.93 1013 10 16 0.00 0.00

Powered by AerisWeather